Theta_e
319 318 319 320 319 319 320 319 319 319 319 319 320 319 318 317 314 311 311 311 309 310 308 309 309 313 310 309 309 308 307 310 308 304 304 303 303 309 310 309 310 309 309 311 310 310 310 311 312 315 317 318 318 316 315 313 312 311 315 316 315 311 310 309 308 312 312 312 310 309 308 308 307 308
320 318 318 319 320 319 320 319 319 319 319 319 319 317 315 315 314 312 311 310 307 307 308 305 307 309 310 309 307 307 306 311 307 304 302 301 302 307 307 306 305 305 307 306 304 305 308 310 313 315 316 317 315 313 312 312 311 314 316 316 314 312 311 311 312 311 311 309 309 309 308 308 308 309
321 319 319 316 317 318 319 318 319 319 319 318 318 315 315 314 312 312 308 308 308 308 309 306 308 309 308 310 307 308 306 309 306 302 301 301 307 307 305 306 305 306 307 304 305 309 310 309 311 313 315 315 313 312 313 314 313 315 315 312 311 312 312 312 312 311 310 309 309 309 309 308 309 311
321 319 319 317 318 317 317 318 318 318 318 318 317 316 315 313 313 312 309 307 309 306 309 305 307 310 308 308 307 305 307 308 308 302 301 302 309 301 300 305 305 305 305 305 310 315 314 311 312 314 315 315 314 313 314 313 314 314 310 309 310 311 311 312 312 312 311 311 310 310 309 309 310 310
320 320 319 318 316 316 318 317 317 318 317 317 317 316 314 313 312 313 308 306 303 304 303 304 306 308 308 306 306 305 304 302 302 304 300 301 299 298 298 299 304 303 303 303 305 308 307 308 314 313 311 313 312 310 309 309 309 311 310 307 307 308 311 311 312 312 313 311 310 310 308 309 310 309
321 319 319 318 316 316 319 317 319 319 319 320 320 317 316 313 313 312 310 305 303 303 302 301 304 305 307 306 303 305 303 301 301 300 300 300 299 298 298 298 300 303 304 303 304 306 306 305 308 308 305 306 307 307 306 307 307 309 306 303 305 309 311 312 310 308 312 311 310 308 308 308 309 309
318 317 316 316 316 318 317 316 317 318 319 319 320 318 316 315 313 312 310 306 303 303 301 300 302 303 303 304 303 304 304 302 301 299 299 300 301 300 298 298 299 302 302 302 303 304 304 304 304 306 305 304 304 304 304 305 305 305 305 302 304 306 307 307 306 304 309 310 309 308 308 307 308 308
319 317 316 315 316 316 316 314 314 316 316 316 317 315 313 313 313 311 309 310 303 301 303 300 302 302 302 301 299 302 303 301 300 299 299 298 299 299 300 297 298 300 302 301 302 303 304 304 303 304 304 304 304 303 304 304 304 303 304 303 302 303 303 303 302 301 303 309 309 308 307 307 307 306
319 317 316 316 315 316 316 313 315 313 314 314 314 315 314 314 313 311 310 309 304 303 303 301 300 300 300 299 298 301 301 300 299 298 297 297 298 298 298 299 300 300 302 303 302 302 302 303 303 302 303 303 303 302 303 303 302 302 303 303 302 301 301 301 301 300 300 302 305 308 307 306 307 307
317 316 314 315 316 315 316 315 313 311 312 311 310 310 312 313 311 309 306 306 305 305 304 301 299 298 300 298 298 300 301 301 300 298 297 296 296 297 297 299 300 301 300 299 301 301 301 302 302 302 302 302 301 302 302 302 302 302 302 302 302 301 299 299 299 299 298 299 301 303 305 306 306 306
317 317 316 313 313 315 315 315 314 310 307 309 307 310 310 309 308 306 304 304 304 303 301 299 300 299 299 299 299 301 301 301 300 299 298 298 297 297 297 298 299 300 301 301 301 301 301 302 301 301 302 302 302 302 301 301 302 302 301 301 301 301 299 299 299 299 298 298 300 300 300 302 304 305
317 316 316 314 314 314 312 311 309 310 310 309 308 306 309 307 305 304 303 302 302 301 300 300 299 297 298 298 298 300 300 300 299 300 300 298 298 298 297 297 298 300 301 300 301 302 302 302 302 302 302 302 302 301 301 302 303 303 301 300 299 300 300 299 299 299 299 298 300 299 298 297 298 303
313 312 311 312 312 314 313 309 310 311 312 311 310 306 307 307 306 305 303 302 300 300 299 300 298 298 298 297 298 297 297 299 300 299 300 299 299 298 298 299 299 300 300 301 300 301 301 301 301 300 300 301 302 302 303 302 303 302 301 300 300 299 299 299 299 299 299 299 300 298 297 297 296 296
310 310 310 313 313 311 308 304 300 300 303 309 311 309 309 308 308 306 306 304 303 303 301 301 300 298 297 297 298 298 299 300 300 298 298 298 299 298 298 299 300 301 300 300 299 301 303 302 302 301 300 302 304 302 302 302 302 302 300 300 300 300 299 299 299 299 299 299 300 297 296 295 295 294
309 311 311 310 313 311 309 303 299 298 298 298 299 301 305 310 310 309 307 305 305 304 302 301 300 299 298 299 300 299 299 299 300 299 297 299 298 298 296 298 298 300 301 299 298 300 301 302 301 302 302 303 302 302 302 302 301 301 300 300 299 299 299 299 299 298 298 299 298 296 296 296 296 295
312 312 312 312 313 311 309 308 305 302 299 299 298 298 297 297 296 300 306 304 302 301 303 302 301 299 300 299 299 300 302 302 300 299 298 297 298 297 297 296 297 300 301 300 298 299 300 301 301 301 302 303 303 304 302 301 300 300 300 300 299 299 299 299 299 298 298 297 296 296 296 296 296 294
312 311 311 310 309 311 316 314 310 310 308 302 300 302 302 300 297 294 294 297 306 303 303 304 301 303 302 303 304 302 302 300 301 300 299 300 299 299 298 298 298 305 302 300 298 298 300 300 299 300 302 303 303 303 301 301 300 300 300 299 299 298 298 298 298 297 297 296 296 296 295 295 294 294
311 310 310 309 307 305 305 305 309 311 310 310 310 310 309 309 307 302 300 299 298 302 306 304 306 305 303 307 304 305 303 306 305 302 302 302 302 302 302 301 303 305 305 303 299 298 302 301 300 300 304 305 304 304 303 301 300 299 299 299 298 298 298 298 298 297 296 296 296 295 295 295 294 294
312 310 309 307 305 305 304 302 303 310 310 310 309 308 308 307 306 305 305 305 306 307 306 305 306 305 304 305 305 304 303 306 304 305 305 305 304 305 304 304 306 305 304 304 304 302 304 300 301 304 306 307 305 305 303 300 299 299 299 298 298 298 298 297 297 297 296 296 295 295 294 294 293 293
309 309 308 307 306 306 304 299 297 306 313 313 312 310 308 306 303 303 303 297 298 301 303 305 306 306 304 299 301 300 300 302 303 305 306 305 304 305 303 303 299 302 301 303 303 301 302 302 302 304 304 302 303 301 298 297 298 298 299 298 298 298 297 297 297 296 296 295 295 295 294 293 293 292
305 306 306 305 304 303 301 295 295 300 307 312 311 310 306 304 302 300 302 300 297 296 297 297 296 295 295 294 293 294 295 299 300 303 302 301 300 301 300 300 299 301 298 298 299 300 302 300 298 300 298 296 295 296 295 295 297 297 299 298 298 297 297 297 297 296 295 295 295 295 294 294 293 293
300 302 305 304 300 298 297 292 294 299 307 309 307 304 302 301 300 300 300 302 303 300 299 298 297 297 296 297 297 296 295 294 296 303 302 302 301 299 299 298 298 298 296 296 297 298 298 298 296 297 298 296 295 294 294 295 296 297 296 297 297 297 297 297 296 296 295 295 295 295 295 294 294 295
298 297 298 298 297 297 293 291 293 296 302 304 302 301 300 300 299 298 299 299 301 303 303 303 303 301 300 301 300 299 296 297 300 301 302 302 302 300 298 297 297 298 298 297 298 298 300 299 300 299 299 296 296 295 294 295 295 295 296 296 296 296 296 296 296 295 295 295 295 295 295 294 294 294
297 296 296 296 290 290 291 291 292 294 296 300 301 301 300 300 299 298 299 299 299 300 299 299 300 300 299 298 298 297 297 297 298 296 297 299 299 299 298 298 299 300 299 298 297 297 298 297 296 296 297 296 292 293 293 293 293 293 292 292 292 295 295 295 294 295 295 295 295 295 294 294 294 294
296 295 295 295 292 290 291 291 291 292 293 295 299 299 298 298 296 294 299 298 298 298 298 298 298 298 298 298 297 296 296 296 295 295 294 295 296 299 299 296 295 295 296 296 295 297 295 294 293 292 291 291 290 290 290 289 290 290 292 292 292 293 292 293 294 294 294 294 294 294 294 294 294 294
294 293 292 293 291 291 291 291 291 291 291 292 294 290 289 288 291 297 297 296 296 296 295 295 294 295 296 296 295 294 293 293 294 292 292 292 292 292 292 293 291 290 291 294 294 294 292 292 291 289 288 289 289 288 288 288 288 289 290 291 292 292 293 293 293 293 294 294 294 294 294 294 294 294
293 292 292 294 293 291 291 291 291 292 291 292 289 288 289 290 292 294 294 293 293 292 292 292 290 290 291 292 292 292 291 291 291 290 291 291 291 292 293 292 292 291 291 291 293 292 290 289 289 288 287 287 288 287 285 286 288 287 288 288 290 291 291 292 292 293 294 294 294 294 294 293 293 294
292 292 292 292 291 291 291 291 291 291 292 291 290 291 291 292 292 294 293 292 291 290 289 289 288 287 287 287 288 288 288 288 288 290 290 290 290 290 290 290 291 291 291 291 290 290 289 288 288 287 286 286 285 285 286 285 286 286 288 289 290 290 292 293 293 294 294 293 293 293 292 291 292 292
292 291 291 291 292 292 292 292 292 292 291 291 291 291 292 295 294 293 292 291 291 290 287 287 287 286 287 286 286 286 286 287 288 287 289 289 289 288 288 288 289 290 291 291 290 289 288 287 286 285 285 285 285 285 286 285 285 287 288 288 287 290 291 294 294 294 293 292 292 291 292 291 290 291
290 291 291 291 292 292 293 294 293 293 292 291 291 291 293 292 291 290 290 290 289 287 287 287 286 285 285 285 287 286 288 289 288 287 287 288 289 289 288 289 289 288 289 288 289 289 288 287 286 285 285 286 287 287 286 286 285 287 289 289 290 290 290 290 291 291 292 291 290 290 289 289 290 291
292 292 292 291 290 290 290 291 291 291 291 292 292 291 290 290 290 289 288 288 287 286 285 285 284 284 284 285 286 287 288 288 288 288 288 288 288 288 287 288 287 287 288 288 287 288 289 288 287 287 287 285 284 285 286 286 288 288 288 289 288 287 289 290 290 289 289 289 289 290 290 290 291 291
293 292 291 291 292 292 292 291 291 290 289 289 288 289 289 288 288 291 291 289 286 284 283 283 283 283 286 286 285 286 287 286 287 287 287 287 286 286 284 283 284 283 285 287 289 290 289 288 288 288 287 287 286 287 285 286 286 286 288 290 290 290 290 289 289 289 290 290 290 290 290 290 290 291
291 290 290 289 289 289 287 287 287 287 287 286 287 288 288 287 287 286 286 286 284 283 285 284 284 283 284 284 284 284 285 285 285 286 287 286 286 286 286 285 284 283 284 285 286 288 288 288 286 286 287 286 287 287 286 284 286 287 287 288 290 290 291 291 290 291 291 291 290 290 290 291 290 291
288 287 286 286 286 286 286 285 285 284 284 285 285 284 286 285 286 284 284 283 283 283 283 283 283 282 283 283 283 283 283 284 285 285 286 285 286 285 284 284 284 285 284 285 285 286 286 287 286 286 286 285 285 288 287 286 285 287 287 288 290 290 291 291 292 292 291 290 289 288 288 289 291 289
287 286 286 285 285 284 285 284 283 283 284 283 283 283 283 283 283 282 283 281 280 281 282 282 281 281 282 281 282 282 282 283 283 284 283 283 284 283 283 283 283 283 283 283 284 285 283 284 284 284 285 285 284 283 290 289 286 286 286 289 290 290 290 291 290 291 290 289 288 288 287 287 287 288
285 285 285 284 284 284 284 283 282 282 282 282 281 280 283 283 282 282 282 280 281 281 282 280 280 280 281 280 279 280 280 280 282 282 282 282 282 282 282 282 282 282 282 282 283 283 282 283 282 282 282 281 280 281 283 289 290 287 284 284 288 289 289 290 289 289 288 287 287 287 285 286 286 287
285 284 284 284 283 283 283 282 282 282 282 282 282 282 282 280 281 282 281 279 282 280 280 279 278 277 278 278 278 279 279 279 279 280 280 281 280 280 281 280 280 281 282 282 281 281 281 282 281 282 281 278 278 277 281 282 285 289 286 284 284 284 287 287 287 287 288 288 288 286 286 285 284 285
285 284 284 283 283 283 283 282 283 283 282 281 282 281 281 281 282 282 283 283 282 280 280 280 278 278 278 278 279 279 278 277 278 279 278 279 279 279 277 277 279 279 280 281 281 280 280 280 281 281 280 276 276 278 280 282 283 287 290 288 284 285 283 283 284 285 287 287 287 287 286 284 285 286
285 284 284 283 283 283 283 282 282 282 282 281 281 281 281 282 283 282 283 283 283 282 282 282 281 279 280 278 277 278 279 279 280 278 278 279 277 277 278 276 279 279 279 280 281 281 281 280 281 282 282 280 279 281 280 279 281 286 288 290 285 283 282 282 283 284 285 284 286 286 285 286 286 286
284 284 283 283 282 282 282 282 282 281 282 282 281 282 283 281 281 282 284 283 283 283 284 282 281 282 280 278 277 276 278 278 277 277 277 277 277 277 276 276 276 275 276 278 279 280 281 282 282 282 282 283 284 285 284 285 285 285 286 288 290 288 287 284 282 281 283 285 286 285 286 285 283 282
284 284 283 282 283 282 282 281 282 281 282 282 282 283 281 281 282 281 280 281 281 281 281 280 280 279 278 278 277 277 278 278 277 278 277 277 278 278 279 279 276 275 276 277 278 279 282 283 284 282 282 281 283 282 283 283 283 284 285 287 289 290 289 289 287 284 284 283 284 286 286 285 283 279
284 282 282 282 283 282 282 282 282 281 281 280 279 280 280 282 281 285 282 282 282 282 281 280 279 280 279 277 276 277 276 277 277 278 277 276 277 277 279 277 277 277 278 278 277 281 284 284 283 282 281 279 281 282 280 281 282 284 285 285 287 289 289 289 289 288 288 286 286 286 285 283 279 279
282 283 282 281 282 282 282 282 282 281 279 279 279 277 280 281 281 282 281 280 280 280 279 278 278 277 277 276 275 275 275 276 276 276 276 277 277 277 278 278 279 280 279 279 280 280 281 281 281 282 282 282 281 282 283 284 284 283 284 285 286 286 287 290 289 289 288 289 289 288 287 286 284 281
283 283 282 282 283 281 281 281 280 280 279 279 276 277 278 278 278 276 276 276 276 276 276 276 277 276 276 276 274 274 276 277 276 277 277 278 278 279 279 280 281 280 279 278 278 280 280 280 280 280 282 283 282 283 284 283 283 283 283 284 284 285 286 287 287 288 288 287 287 288 289 289 288 288
282 282 281 281 280 278 278 280 278 278 277 277 277 277 277 276 276 275 275 274 275 274 275 276 276 275 275 275 275 278 277 283 279 277 278 277 277 279 279 279 279 279 277 275 276 281 282 280 280 281 281 282 283 284 284 283 283 284 284 283 284 286 286 285 284 284 284 286 287 287 286 286 286 287
Wind_Speed
4 4 5 5 4 4 3 3 5 5 5 6 7 7 8 8 8 5 4 4 3 1 2 3 1 3 3 3 2 3 3 2 3 3 3 3 3 5 7 8 8 8 8 9 9 8 9 9 9 9 9 8 8 8 9 8 7 7 7 6 7 8 8 8 7 6 7 7 7 7 5 5 5 5
4 4 3 4 4 3 4 4 4 5 6 6 6 5 3 5 8 6 7 5 2 1 1 1 3 2 4 3 2 2 2 3 3 3 3 3 3 5 7 7 8 8 8 9 9 9 9 9 9 10 10 10 10 9 9 8 7 7 7 7 7 7 7 7 7 8 8 7 6 5 5 4 4 5
5 4 4 3 4 4 5 4 5 5 5 6 6 4 5 4 4 5 4 3 3 3 5 2 1 4 3 4 3 2 1 3 2 2 2 2 4 6 5 7 7 7 8 8 9 9 9 10 10 10 10 10 10 9 9 8 8 9 8 7 8 7 7 7 7 8 8 8 7 7 6 6 7 7
4 5 4 4 4 3 4 5 5 6 5 5 6 6 5 4 5 5 4 3 3 1 3 3 1 4 3 4 4 2 1 1 3 1 2 2 4 2 2 5 7 7 8 8 9 9 10 10 10 10 10 10 9 10 10 10 10 9 9 9 9 9 9 9 8 10 9 9 9 7 7 7 7 7
4 5 4 4 3 3 4 4 4 5 4 3 2 4 5 5 4 5 3 4 2 0 1 2 2 3 5 3 3 4 3 2 1 1 0 1 2 2 3 3 5 8 9 9 10 10 11 11 11 11 11 11 12 11 11 11 10 10 10 11 11 10 10 10 9 10 10 10 9 7 8 8 7 7
4 4 4 3 3 3 4 4 5 6 6 6 5 2 5 5 5 3 4 2 3 4 0 2 2 2 3 3 3 6 5 4 2 2 2 2 2 3 4 4 5 8 9 10 11 10 11 11 12 12 12 12 12 12 12 12 12 11 12 13 12 12 12 11 10 9 10 11 9 9 8 7 6 7
3 3 4 3 3 3 4 4 4 5 5 5 6 4 3 5 5 5 4 4 3 5 3 2 3 3 3 5 4 4 3 2 3 3 3 3 3 2 3 4 4 8 10 11 11 11 11 12 12 12 12 12 12 12 12 12 12 12 12 13 13 13 13 13 12 10 10 11 10 10 9 7 6 6
4 4 4 3 4 4 5 3 4 4 5 5 4 4 4 4 5 5 4 4 4 3 5 4 5 4 5 3 0 2 3 3 2 2 2 1 3 3 3 3 4 6 11 11 11 11 11 12 12 13 12 12 12 12 12 12 11 11 11 11 12 11 11 11 11 10 10 10 11 11 9 8 7 7
4 4 4 4 4 4 5 3 4 5 5 4 4 6 6 6 5 4 6 5 4 6 7 3 1 2 1 1 1 4 5 2 2 1 3 3 4 4 4 3 4 6 8 10 11 11 11 11 11 11 11 11 11 11 11 11 11 11 11 11 10 10 9 9 8 8 8 8 8 10 10 7 8 8
4 4 3 1 2 3 4 4 4 4 5 4 5 5 5 5 5 5 4 4 4 6 5 6 3 2 5 2 1 3 4 5 3 2 3 3 4 4 5 5 4 3 3 4 5 7 8 9 10 10 10 10 10 11 11 11 12 12 12 12 11 11 10 10 10 10 9 9 9 9 9 7 8 8
5 5 5 4 5 4 4 5 5 4 4 5 5 5 4 4 5 5 6 5 5 4 4 2 2 3 2 2 3 1 4 3 3 5 3 5 4 4 5 6 4 3 5 5 9 8 7 7 7 9 11 11 12 12 11 11 12 12 13 12 12 12 11 11 11 11 11 11 10 10 9 8 7 7
4 3 4 4 4 1 3 2 2 3 5 4 4 3 5 5 6 6 5 4 4 4 3 2 3 1 2 0 1 2 3 2 3 5 6 7 5 6 4 6 5 3 4 7 6 6 7 9 11 12 12 13 14 14 12 13 13 14 14 14 13 12 12 12 13 13 12 12 11 11 10 9 5 3
4 4 4 3 5 1 5 10 7 4 2 5 6 3 4 4 5 4 4 4 5 4 3 2 2 3 2 3 4 3 4 8 9 3 4 6 5 3 3 5 5 6 5 4 4 6 7 6 7 7 7 9 11 12 14 12 16 17 16 16 15 14 13 14 14 13 12 12 12 12 11 9 7 5
5 4 6 6 9 9 10 10 11 12 13 11 7 5 6 6 6 5 5 5 5 6 5 5 5 4 5 5 6 6 6 4 1 2 4 6 4 0 4 5 5 5 5 6 7 9 5 6 8 6 8 10 8 7 7 10 13 15 18 17 16 16 15 14 14 14 13 13 13 11 10 8 7 5
6 5 5 2 5 9 9 11 14 15 16 15 14 12 9 5 7 7 6 4 3 3 2 2 2 3 4 5 4 5 4 1 4 4 3 4 1 4 4 7 5 2 7 5 5 10 5 5 8 9 7 9 6 6 9 13 14 15 14 12 12 11 11 11 12 13 13 13 11 10 9 7 6 5
6 6 4 3 4 5 6 6 9 11 13 15 14 14 14 14 14 10 4 3 2 2 3 2 1 2 2 1 2 2 1 4 3 4 2 3 5 5 5 4 5 3 2 5 4 8 2 4 6 8 8 6 6 7 10 12 12 12 13 14 12 10 11 11 10 10 11 11 10 9 8 6 6 5
6 6 6 6 6 5 10 7 6 7 9 11 14 14 15 15 14 14 14 11 6 3 5 4 2 1 1 3 1 0 0 2 2 1 4 3 3 3 3 5 4 6 2 3 3 5 6 1 3 6 8 7 5 6 6 10 12 13 13 11 11 11 11 10 9 7 8 12 11 10 9 7 6 5
5 4 6 7 6 5 6 6 5 6 6 6 8 9 8 8 10 12 12 11 10 6 4 3 2 0 1 1 1 2 1 0 1 2 2 2 3 3 5 4 4 2 0 2 1 2 6 3 4 6 8 6 4 4 4 9 9 10 8 10 12 12 12 14 16 19 19 16 13 11 9 9 8 6
6 5 6 7 7 5 6 4 3 5 6 7 8 8 8 8 7 7 7 7 5 4 3 2 0 1 1 1 0 0 1 0 1 2 2 3 2 2 1 2 1 3 4 3 1 4 3 2 2 5 6 6 4 2 4 6 7 7 10 12 13 12 13 13 15 13 15 15 16 14 13 11 9 8
5 6 6 6 7 6 6 5 6 5 6 8 9 9 7 7 6 7 4 4 4 4 3 3 2 2 3 1 1 0 1 2 2 1 1 2 2 3 3 3 3 3 3 4 2 2 3 0 2 4 4 4 4 5 4 7 9 6 4 10 11 11 13 14 14 15 16 15 15 14 13 12 11 8
7 7 6 7 6 7 6 6 9 8 8 7 8 8 7 6 6 6 5 6 7 8 7 7 7 8 9 9 5 1 2 3 1 2 2 1 1 0 1 4 3 2 1 2 2 1 4 3 2 5 3 1 1 3 4 4 6 7 6 7 9 12 13 14 15 17 17 17 16 14 13 12 10 8
8 9 14 9 7 8 6 9 12 10 9 8 7 8 8 7 7 6 6 5 5 6 7 11 10 13 13 12 10 10 5 3 4 1 0 0 1 2 1 2 2 2 2 4 3 2 2 4 1 3 4 1 0 2 3 4 5 7 5 3 8 11 13 16 18 18 17 15 13 13 13 13 10 5
6 6 8 12 9 8 8 14 14 14 10 9 8 6 7 7 6 4 5 5 6 7 8 8 8 10 10 9 8 8 13 10 7 4 1 0 0 1 1 2 1 2 0 2 4 2 2 5 3 3 5 3 2 0 1 3 4 3 3 2 2 9 13 15 17 17 17 16 14 14 15 13 8 4
6 6 5 8 10 12 13 13 14 13 13 9 5 5 7 7 5 2 3 3 3 5 6 5 6 6 6 7 7 7 8 8 8 7 5 4 1 0 2 1 1 0 1 2 6 3 1 2 4 3 0 1 3 3 4 5 3 3 2 1 1 4 8 11 11 13 14 15 16 15 13 11 8 3
6 5 5 5 8 10 11 11 13 13 12 10 7 6 6 4 2 1 4 5 6 6 6 6 7 7 6 7 6 7 7 7 7 6 7 6 6 5 3 2 2 2 1 3 8 2 2 2 4 5 3 1 1 3 4 1 3 2 2 0 0 1 3 4 4 4 6 9 11 12 11 10 10 7
5 4 4 5 5 10 11 12 13 13 12 12 8 7 6 5 5 5 4 4 6 7 6 6 7 7 6 6 7 7 7 7 7 7 7 7 7 7 5 5 3 3 4 7 10 3 2 4 4 4 3 3 3 1 4 4 2 4 4 2 0 1 1 3 3 4 4 5 5 6 7 9 9 11
5 3 4 4 9 12 14 14 14 14 15 12 8 7 7 6 6 6 6 6 7 7 7 7 7 7 7 6 6 6 6 6 6 6 6 6 6 7 7 7 6 5 2 5 5 5 4 2 3 5 3 3 3 6 3 3 4 5 6 3 1 0 0 1 2 3 3 4 4 6 8 9 11 12
5 6 5 8 14 16 16 16 15 14 12 9 9 9 10 9 7 6 6 7 6 6 7 7 6 6 5 4 4 5 3 3 3 5 5 6 6 6 6 6 6 5 6 6 6 6 5 5 5 3 1 3 3 3 5 4 2 3 5 5 0 1 1 2 2 1 2 2 2 3 3 4 4 4
6 9 13 15 15 15 15 16 15 13 13 14 13 12 12 10 7 7 7 6 7 8 6 5 4 4 4 2 2 3 2 2 3 3 4 4 5 4 4 4 5 6 5 5 6 5 4 4 3 2 3 3 3 1 1 4 2 4 4 6 3 1 2 3 4 5 4 4 5 5 6 6 5 5
14 14 14 15 15 13 11 10 9 8 9 13 15 14 12 8 7 6 6 6 7 6 5 5 5 3 3 4 4 2 3 7 6 4 4 5 6 6 6 7 7 6 6 4 4 4 4 4 3 1 2 2 1 3 2 3 4 5 4 5 6 4 1 2 2 3 3 5 4 3 2 2 4 5
10 12 11 11 12 12 15 14 12 10 9 10 9 8 7 7 6 6 6 6 6 4 5 4 4 3 3 1 3 6 6 7 6 5 3 5 5 4 3 5 6 7 7 5 4 4 5 4 3 3 3 3 2 2 3 0 2 5 5 5 4 2 6 5 2 3 3 3 3 3 3 3 2 1
7 8 8 10 7 8 9 9 8 8 7 7 7 7 6 6 5 5 6 6 6 4 3 3 3 4 5 7 6 6 7 7 6 5 4 4 5 5 3 4 5 4 6 7 7 6 4 4 4 4 2 1 2 4 3 2 3 5 5 5 4 3 4 5 4 4 2 2 4 4 4 4 2 1
6 7 9 8 9 8 8 7 7 6 7 7 6 7 6 6 6 6 7 7 6 5 6 7 6 5 5 6 5 5 7 6 5 5 5 4 5 4 6 6 3 3 5 6 6 8 7 6 4 3 3 2 1 1 3 4 5 4 4 5 5 5 5 5 5 5 3 5 5 5 5 5 4 4
9 8 8 7 7 7 7 7 7 6 6 6 6 6 5 6 6 6 5 5 4 5 6 4 6 5 6 6 6 6 6 6 6 6 6 5 5 6 5 5 5 3 3 5 5 6 7 7 7 5 5 4 2 2 3 4 3 5 4 4 5 5 4 5 5 4 5 2 2 3 3 5 6 5
8 7 9 7 7 6 7 7 5 5 5 5 5 5 5 5 5 5 6 5 3 5 5 5 5 5 6 5 5 6 5 5 6 6 5 5 5 5 5 5 5 5 5 5 5 5 5 6 6 6 7 8 7 4 3 2 3 3 4 5 4 4 5 4 4 5 4 3 0 2 5 5 6 6
7 6 8 7 6 6 7 5 5 5 5 4 3 3 6 6 5 5 5 2 4 4 5 6 6 6 6 5 4 5 4 5 5 5 6 6 5 5 5 4 3 5 4 4 5 5 4 5 5 6 6 6 6 7 7 5 3 0 3 4 4 3 3 4 3 3 3 4 2 3 4 5 5 6
7 6 6 7 5 6 6 5 5 5 5 5 5 5 5 5 3 3 1 2 5 4 4 5 5 5 4 4 5 5 5 6 5 5 5 4 3 4 5 5 5 4 5 6 4 4 3 4 3 5 5 6 6 6 7 5 8 5 2 2 5 3 4 4 4 5 4 3 4 3 4 3 4 6
7 6 7 6 6 5 5 4 5 5 5 5 5 5 5 3 3 3 2 5 5 4 5 6 4 4 5 5 6 5 5 3 4 6 5 5 5 5 3 3 5 4 5 5 5 5 4 3 4 2 3 3 4 6 6 6 5 5 1 1 3 6 4 3 3 4 5 2 4 4 2 4 5 5
6 7 6 6 5 5 5 4 5 5 5 5 5 5 4 4 4 4 5 5 4 5 5 5 4 4 4 3 4 4 5 6 7 6 5 6 4 3 5 4 6 5 5 7 7 6 6 5 6 5 3 3 3 4 3 4 6 8 6 4 4 4 4 3 5 5 4 4 4 3 4 4 5 5
5 5 5 6 5 5 5 4 5 4 5 4 5 4 5 5 4 5 5 5 5 4 5 4 3 4 4 3 3 2 3 3 2 2 3 3 4 3 2 1 1 2 4 5 6 7 6 6 6 6 6 6 6 5 4 5 5 5 7 8 6 7 4 2 4 4 5 5 2 1 3 3 3 3
5 6 5 4 5 4 4 3 3 3 5 4 4 4 4 4 5 5 4 4 5 5 5 4 4 4 4 4 3 3 3 3 3 3 3 3 3 4 4 3 4 3 4 5 5 6 6 6 7 8 6 5 6 2 1 4 6 8 8 8 5 6 9 7 5 3 5 2 1 2 3 4 3 4
5 5 3 3 5 3 4 4 3 5 4 3 4 5 4 5 4 5 5 5 5 5 6 6 5 4 4 3 3 3 3 3 2 3 4 4 4 4 5 4 4 4 5 5 4 6 7 5 6 4 4 3 4 6 5 5 5 6 7 7 8 7 4 6 9 9 7 4 2 2 2 2 1 2
4 5 5 3 3 4 4 4 4 4 4 4 4 3 5 5 5 6 5 6 5 6 5 4 3 3 3 3 4 3 3 3 2 2 2 2 2 3 4 4 3 2 1 4 5 5 6 5 5 6 5 5 2 1 4 5 5 5 6 7 7 7 8 7 3 6 8 10 9 6 4 3 1 2
5 5 5 4 5 4 3 3 4 4 4 4 3 5 6 6 6 5 5 5 5 4 3 3 3 4 4 3 1 3 4 1 1 2 3 2 1 1 2 3 3 4 3 3 6 7 7 6 5 5 5 4 4 4 5 5 6 5 5 6 5 6 7 7 8 7 4 2 5 7 9 8 9 11
4 5 4 3 3 3 3 3 4 4 4 4 6 6 5 5 5 4 4 3 3 3 3 4 4 4 3 2 2 3 1 1 1 1 1 1 2 2 2 2 4 5 4 2 4 6 6 6 6 5 2 3 3 3 4 3 4 5 5 5 7 6 6 6 6 6 7 7 5 3 4 5 6 8
Wind_Direction
150 149 162 173 162 178 168 158 152 153 151 161 162 169 168 164 148 166 183 215 190 248 170 150 238 150 138 126 109 107 98 91 100 92 94 100 92 94 99 99 99 100 103 109 118 127 132 133 136 140 143 140 138 139 141 137 136 138 138 132 129 129 123 119 119 130 136 123 115 110 111 107 100 103
148 139 138 142 152 166 154 156 155 157 159 156 168 163 128 147 159 161 175 202 189 195 252 144 150 174 146 139 116 119 121 112 107 110 112 111 119 113 112 114 115 117 121 127 135 143 148 151 154 157 159 158 152 155 154 154 155 162 161 152 143 133 136 137 145 151 139 136 139 142 141 151 157 145
148 151 156 151 154 159 138 136 152 160 155 162 157 146 132 119 119 131 117 140 252 166 203 252 170 144 166 150 138 112 114 125 117 119 122 131 134 126 125 131 136 141 144 148 154 158 163 168 172 174 173 169 169 169 172 172 175 179 170 156 155 155 153 159 166 169 162 165 169 173 177 177 173 156
157 154 160 172 166 152 129 132 148 159 162 156 156 158 143 129 132 130 131 132 180 252 202 196 115 142 136 149 143 142 138 105 127 144 154 161 137 118 140 150 155 159 164 170 174 176 175 181 184 186 185 183 185 186 186 184 184 184 166 167 170 173 174 178 186 191 187 189 189 186 191 182 172 162
152 160 163 169 156 146 135 136 126 112 113 112 126 146 139 139 148 136 129 131 156 7 18 123 157 148 137 153 165 155 167 162 143 127 212 176 153 164 169 179 181 177 180 183 188 189 185 191 194 196 195 195 194 194 193 191 191 187 175 181 184 186 187 191 196 210 198 192 190 185 195 179 172 168
159 155 158 154 133 131 134 137 133 127 128 137 136 172 166 160 173 171 118 143 139 192 354 61 53 136 183 163 190 172 180 202 172 181 218 232 210 187 189 185 204 202 194 194 197 199 196 198 204 201 205 203 201 200 199 198 198 195 188 191 196 196 197 196 197 207 198 189 187 189 190 181 178 178
152 144 150 142 133 131 122 156 147 135 138 151 164 175 184 171 175 182 153 131 156 169 219 174 172 185 191 184 195 198 180 156 161 188 222 224 235 233 203 205 212 213 209 206 207 208 205 206 210 211 210 211 209 210 208 208 208 208 202 202 204 204 201 199 196 195 192 192 188 189 185 183 192 191
160 156 130 139 146 145 137 146 129 148 146 161 167 185 201 171 174 183 178 175 140 171 169 225 192 192 171 234 149 142 129 141 169 212 259 281 263 247 222 223 226 227 221 220 218 219 217 216 217 220 218 218 218 218 218 217 219 219 220 217 217 216 212 207 203 199 200 199 192 190 185 188 194 194
153 146 147 156 158 160 148 152 157 161 168 183 173 201 193 187 180 169 189 188 150 149 190 185 219 148 178 170 161 160 152 136 168 200 208 228 238 250 244 234 238 250 240 235 236 234 233 233 233 233 233 231 230 229 229 228 228 229 230 228 225 225 223 219 216 212 211 211 197 197 188 195 202 201
111 98 90 129 166 171 162 180 193 182 192 175 185 195 201 186 166 169 182 177 172 171 182 156 148 183 176 191 196 178 163 153 188 247 256 248 226 228 257 243 233 227 228 236 244 250 255 261 264 264 261 257 254 247 242 239 237 235 233 230 225 221 218 214 212 208 207 209 206 198 189 194 211 204
114 120 113 86 22 312 194 178 190 187 177 172 189 185 168 168 153 159 169 164 167 165 140 136 176 164 218 158 192 169 155 153 163 196 244 270 242 224 222 255 242 223 241 232 225 228 227 234 241 245 248 249 251 251 251 250 248 246 241 235 228 221 215 211 210 205 203 204 202 192 184 192 203 206
102 104 113 118 137 284 272 128 128 146 144 126 117 130 140 150 142 151 147 142 144 143 155 159 179 148 161 136 52 94 110 158 267 214 195 231 247 236 232 230 237 246 214 242 245 233 232 241 244 245 246 244 241 242 244 244 245 245 244 239 232 224 215 210 209 205 203 201 195 184 183 189 190 191
85 68 64 63 70 113 88 71 70 65 122 132 113 93 119 119 117 110 104 120 121 120 140 121 90 122 164 184 144 143 175 196 216 179 178 238 250 267 287 264 225 225 234 257 251 250 221 240 245 242 249 247 238 242 236 241 239 239 237 234 229 222 215 210 208 204 200 196 190 184 182 178 179 180
71 82 78 75 104 99 86 96 96 87 81 76 93 124 114 112 99 107 116 120 139 144 156 184 152 162 209 205 199 198 219 215 195 157 173 219 244 122 266 292 250 206 205 241 255 251 220 212 251 234 240 251 227 240 233 235 236 236 234 232 228 220 213 208 204 199 195 190 187 180 177 180 186 186
98 79 78 99 94 91 86 76 78 81 79 80 82 79 83 97 128 134 106 113 144 131 155 140 132 179 217 232 212 223 242 266 205 229 191 230 236 227 248 269 306 254 194 219 238 266 234 184 240 252 247 257 242 225 240 248 249 251 256 255 251 243 231 220 206 196 191 185 176 174 176 182 195 198
111 107 101 73 62 67 82 91 85 78 84 90 87 81 73 65 52 52 97 140 85 111 119 123 139 139 186 258 194 247 191 260 261 251 195 195 209 234 240 255 254 274 197 216 243 266 304 160 229 257 257 254 241 243 245 250 247 245 243 239 232 218 215 216 210 201 184 166 167 169 174 189 211 211
124 125 106 83 48 37 54 60 59 80 75 69 76 76 70 59 58 53 47 47 70 120 78 80 40 34 35 29 12 183 199 167 195 206 212 227 215 214 231 243 275 293 169 184 256 273 285 156 220 240 263 258 240 245 248 255 252 245 242 235 220 211 199 186 179 168 171 173 171 170 173 190 211 206
100 100 107 99 74 38 47 41 58 83 82 73 65 61 59 60 51 48 44 43 43 49 100 114 87 263 161 344 262 303 197 233 281 152 168 149 189 199 214 209 218 261 355 192 192 297 277 252 218 251 265 281 310 285 261 273 272 264 241 212 213 211 197 183 173 181 178 172 165 164 170 196 204 184
85 88 91 95 96 79 65 38 33 93 101 93 86 78 70 64 55 47 34 24 17 23 35 59 78 283 205 220 239 314 43 191 177 148 153 180 193 226 242 291 274 39 356 360 53 264 277 334 320 290 292 296 275 278 268 269 279 258 218 213 214 199 194 186 188 177 166 168 168 172 180 190 190 196
77 83 86 91 87 90 81 46 60 101 110 95 91 85 78 62 52 46 42 31 20 22 22 14 359 317 311 325 53 12 283 281 280 78 56 62 20 351 349 301 335 76 12 29 37 306 301 279 226 277 298 344 6 359 11 352 358 351 245 209 211 200 184 188 180 170 173 168 170 175 178 183 191 190
52 54 62 73 79 65 54 14 67 71 90 86 90 93 82 69 58 31 7 7 20 25 45 37 42 26 17 22 55 93 271 260 330 50 36 12 124 96 344 316 18 50 312 39 36 236 286 320 5 304 295 11 61 349 340 334 337 332 281 227 188 180 183 179 174 176 173 176 173 171 177 191 188 185
57 45 51 63 68 65 47 28 41 53 87 86 86 85 80 61 45 14 2 7 14 22 51 45 55 48 41 43 44 40 27 348 359 83 174 226 65 41 127 237 290 304 9 358 356 330 242 299 329 314 288 346 111 350 350 344 342 342 332 237 187 179 176 173 176 173 169 169 166 172 181 193 189 178
65 55 47 49 57 69 58 53 50 45 60 80 80 92 87 78 59 4 347 11 14 20 31 21 26 31 28 33 37 34 37 36 30 33 67 140 109 228 186 202 306 6 339 18 355 337 312 3 325 19 339 340 301 50 350 360 355 351 351 4 160 172 168 170 167 166 163 163 170 180 192 194 175 171
58 49 45 44 41 61 66 72 74 77 86 97 102 89 91 93 79 346 19 26 48 59 58 41 40 45 34 37 36 33 32 31 33 32 26 25 48 127 99 116 146 161 271 3 11 348 290 29 320 5 140 302 305 306 359 358 3 351 1 9 37 174 161 160 161 162 164 171 182 187 189 188 174 165
82 59 43 44 36 60 77 85 81 74 70 74 77 67 81 66 102 262 81 52 57 65 54 48 39 33 31 35 36 33 29 26 18 23 27 34 35 53 71 85 49 53 311 359 353 357 327 19 348 341 349 40 269 340 298 330 322 349 359 29 37 107 130 142 123 152 165 177 183 183 186 186 184 188
73 63 55 52 53 73 77 78 80 80 78 76 77 63 85 104 113 95 78 73 63 55 49 50 43 30 25 27 30 26 27 17 11 18 24 29 43 47 51 63 80 59 339 331 353 15 345 6 7 341 313 15 308 18 323 323 315 333 355 14 97 205 161 156 142 160 170 178 180 181 197 201 199 202
99 77 81 78 79 80 81 82 81 82 81 75 79 103 110 114 100 82 69 66 66 59 53 53 45 28 20 19 19 20 17 6 10 25 29 32 40 47 47 50 60 83 336 334 1 13 53 37 10 42 341 330 316 321 342 335 325 345 353 347 3 263 109 116 212 200 181 183 197 199 207 217 215 212
103 99 84 93 92 88 85 81 78 74 74 88 92 85 83 81 76 73 72 63 66 67 54 52 45 33 12 14 23 9 345 341 356 38 42 39 41 50 49 44 46 40 30 22 12 20 42 49 13 23 54 29 22 6 319 300 313 342 354 313 164 226 258 228 248 253 227 205 212 193 173 207 208 190
91 101 101 94 88 88 87 85 80 72 68 69 67 64 59 60 55 54 55 55 57 57 52 57 59 44 17 15 345 317 329 355 18 20 13 29 32 26 42 57 51 30 25 12 15 11 22 44 24 347 42 48 70 316 15 280 299 335 350 355 354 317 232 227 215 221 223 206 209 197 195 174 171 180
98 94 89 85 80 74 76 75 73 74 68 62 59 54 53 55 56 56 66 56 65 65 57 52 47 22 356 5 348 5 32 52 24 14 21 25 20 17 26 33 13 2 13 3 2 357 5 11 355 22 59 13 72 11 331 350 338 326 352 12 310 301 30 4 294 270 208 195 183 157 78 104 155 153
82 78 80 88 89 88 78 76 72 68 58 56 49 48 48 55 56 56 59 73 86 81 77 67 46 13 344 319 35 36 42 45 26 15 31 50 18 14 7 56 22 4 342 349 356 356 351 348 352 8 25 325 337 353 310 297 37 351 338 352 15 18 310 341 352 21 22 43 55 56 73 79 106 168
91 91 84 73 67 71 65 61 57 53 54 56 55 49 46 47 51 66 91 83 73 66 82 79 60 34 32 42 20 32 43 35 19 3 40 52 36 21 31 50 9 347 349 350 352 353 11 3 354 352 33 33 13 328 350 36 37 353 337 346 356 345 351 359 6 18 6 61 53 36 14 21 13 324
84 78 69 68 62 61 72 65 63 54 58 51 47 51 45 45 50 48 47 59 47 37 54 50 52 45 47 40 27 40 46 26 14 3 40 38 50 23 55 75 43 20 15 354 349 348 351 355 353 13 8 355 345 349 24 2 341 359 359 342 6 8 10 2 30 15 3 51 38 21 359 336 315 281
86 76 78 65 74 72 74 73 64 59 60 63 54 44 41 46 53 53 56 57 54 53 63 60 60 49 57 46 37 44 40 20 21 16 33 20 22 50 37 44 19 2 12 352 347 348 343 345 345 346 11 356 315 39 67 69 1 350 346 1 6 0 339 8 5 15 37 64 33 350 323 297 285 267
73 87 83 77 72 75 77 78 73 66 67 59 71 59 56 53 54 60 61 37 46 63 69 62 63 58 63 57 41 49 34 36 18 15 15 33 31 42 30 30 5 357 359 356 350 344 353 352 4 6 357 5 4 324 334 71 57 342 1 357 360 348 332 347 350 343 1 346 59 213 252 268 274 269
68 78 94 89 80 83 80 73 70 65 73 63 67 71 65 48 36 53 45 8 60 69 69 65 54 51 52 52 46 45 35 43 38 24 21 20 24 16 27 27 10 347 341 346 328 332 350 7 26 35 22 2 12 356 328 322 17 292 13 332 319 316 300 314 312 310 317 297 232 211 243 256 268 284
89 80 86 91 89 87 93 83 80 72 68 73 64 64 78 69 37 56 53 74 68 68 75 76 58 53 53 50 54 47 38 42 31 22 26 2 29 41 28 357 1 349 352 327 320 318 357 2 16 46 32 12 14 344 301 295 322 312 173 340 314 303 290 307 326 316 274 235 262 213 228 232 266 278
101 94 93 87 90 89 89 89 82 73 66 67 80 74 71 75 72 63 61 68 64 69 64 71 66 62 58 46 51 33 34 32 39 27 12 17 14 4 16 352 336 352 333 320 342 340 337 332 7 59 71 33 343 329 326 315 334 320 233 338 275 284 301 302 300 265 285 263 224 242 210 255 254 259
88 94 92 100 96 98 93 88 89 88 79 79 82 94 92 76 68 60 64 70 66 64 59 54 48 56 61 57 67 69 49 34 24 10 6 2 10 356 340 360 352 345 2 351 342 351 360 2 346 331 313 283 287 274 255 274 287 295 299 263 237 265 270 220 260 268 257 274 261 243 240 250 274 282
78 85 97 97 97 92 89 85 85 102 104 104 99 104 103 97 93 80 67 62 63 57 63 55 42 42 39 44 59 77 66 67 51 29 16 4 1 6 5 9 23 327 3 4 354 336 348 339 327 320 301 272 260 271 260 251 265 277 288 304 220 207 248 229 245 258 284 246 245 329 299 327 328 328
84 82 76 86 91 95 105 109 120 108 91 96 99 94 91 93 76 69 76 64 62 56 50 36 36 41 30 25 26 68 59 25 39 33 30 24 21 20 14 42 39 20 36 350 343 334 323 305 298 292 271 263 278 280 348 355 339 324 324 312 313 245 254 252 243 224 236 231 167 251 286 286 291 341
94 98 89 93 107 122 120 112 102 94 89 81 81 81 77 71 75 72 65 55 52 50 50 37 20 16 29 34 29 60 92 80 45 30 29 32 24 11 15 31 23 351 26 345 316 300 292 310 312 324 340 348 22 37 350 316 305 307 308 313 315 323 314 266 255 243 237 233 230 274 297 345 51 320
109 116 116 119 112 107 100 104 99 99 95 82 73 77 83 70 57 54 50 48 40 44 34 20 14 16 17 22 32 62 73 47 52 60 45 40 42 25 359 345 327 310 306 303 298 296 311 327 339 349 344 28 11 33 337 310 299 296 307 317 316 321 323 335 326 281 260 246 237 223 203 222 283 281
130 118 113 111 107 107 104 100 97 92 95 92 94 78 75 81 68 54 55 53 49 37 6 19 12 25 12 356 35 74 70 52 337 19 22 358 5 2 350 334 338 332 341 353 332 328 329 336 336 340 349 345 319 344 335 328 323 321 307 299 301 329 332 328 335 345 338 277 258 253 259 249 236 249
113 107 108 106 112 106 98 92 89 88 87 85 79 78 80 77 76 60 51 45 40 23 28 23 18 10 9 355 65 57 347 2 73 319 10 346 352 345 359 354 349 332 340 347 350 333 335 331 324 343 345 333 319 315 297 285 286 309 318 330 334 330 328 335 339 337 330 326 327 355 324 301 283 277